Date String (YYYY-MM-DD hh:mm:ss) UTC,Instrument flags,Ambient pressure (hPa),Sample flow (lpm),Bypass flow (lpm),Sample temperature (°C),Ambient temperature (°C),ASC tube jacket temperature (°C),LED temperature (°C),Box temperature (°C),Sample RH (%),Span deviation,Mass concentration (μg/m³),Mass concentration (μg/m³),Mass concentration (μg/m³)
DateTimeUTC,F1_M11,P_M11,Q1_M11,Q2_M11,T1_M11,T2_M11,T3_M11,T4_M11,T5_M11,U1_M11,ZSPAN_M11,X0_M11,X2_M11,X1_M11
2023-01-04 03:00:00,,0817.8,4.99,0.00,22.7,22.9,00.0,31.3,24.7,12.2,0000.0,0016.71,0011.01,0010.59
2023-01-04 03:01:00,,0817.8,4.99,0.00,22.7,22.6,00.0,31.4,24.7,12.3,0000.0,0016.59,0011.11,0010.67
2023-01-04 03:02:00,,0817.8,5.00,0.00,22.7,22.2,00.0,31.4,24.6,12.3,0000.0,0016.48,0011.17,0010.73
2023-01-04 03:03:00,,0817.8,5.00,0.00,22.7,21.9,00.0,31.4,24.5,12.3,0000.0,0016.67,0011.23,0010.77
2023-01-04 03:04:00,,0817.8,4.99,0.00,22.7,21.7,00.0,31.5,24.5,12.2,0000.0,0016.81,0011.28,0010.83
2023-01-04 03:05:00,,0817.9,5.00,0.00,22.7,21.5,00.0,31.5,24.4,12.3,0000.0,0016.35,0011.35,0010.91
2023-01-04 03:06:00,,0817.8,5.01,0.00,22.7,21.3,00.0,31.5,24.4,12.2,0000.0,0015.49,0011.47,0011.01
2023-01-04 03:07:00,,0817.8,5.01,0.00,22.6,21.2,00.0,31.5,24.3,12.2,0000.0,0015.50,0011.58,0011.08
2023-01-04 03:08:00,,0817.8,5.01,0.00,22.6,21.2,00.0,31.5,24.3,12.2,0000.0,0016.52,0011.64,0011.16
2023-01-04 03:09:00,,0817.8,5.00,0.00,22.6,21.1,00.0,31.4,24.3,12.3,0000.0,0017.09,0011.72,0011.22
2023-01-04 03:10:00,,0817.8,4.99,0.00,22.6,21.1,00.0,31.4,24.3,12.3,0000.0,0017.39,0011.82,0011.25
2023-01-04 03:11:00,,0817.7,4.99,0.00,22.5,21.1,00.0,31.4,24.2,12.4,0000.0,0017.48,0011.88,0011.29
2023-01-04 03:12:00,,0817.7,5.00,0.00,22.5,21.1,00.0,31.4,24.2,12.4,0000.0,0017.37,0011.92,0011.34
2023-01-04 03:13:00,,0817.8,5.00,0.00,22.5,21.1,00.0,31.4,24.2,12.4,0000.0,0017.27,0011.92,0011.36
2023-01-04 03:14:00,,0817.8,5.01,0.00,22.5,21.1,00.0,31.4,24.2,12.4,0000.0,0017.19,0011.98,0011.42
2023-01-04 03:15:00,,0817.7,5.01,0.00,22.5,21.0,00.0,31.4,24.2,12.5,0000.0,0017.04,0012.02,0011.48
2023-01-04 03:16:00,,0817.7,5.00,0.00,22.4,21.0,00.0,31.4,24.1,12.5,0000.0,0017.09,0012.07,0011.52
2023-01-04 03:17:00,,0817.7,5.01,0.00,22.4,21.0,00.0,31.3,24.1,12.5,0000.0,0016.95,0012.07,0011.55
2023-01-04 03:18:00,,0817.7,5.00,0.00,22.5,21.7,00.0,31.3,24.3,12.4,0000.0,0016.75,0012.07,0011.59
2023-01-04 03:19:00,,0817.8,5.00,0.00,22.6,22.7,00.0,31.3,24.6,12.4,0000.0,0015.72,0012.09,0011.62
2023-01-04 03:20:00,,0817.8,5.00,0.00,22.7,23.0,00.0,31.3,24.8,12.3,0000.0,0015.57,0012.10,0011.65
2023-01-04 03:21:00,,0817.8,4.98,0.00,22.8,22.6,00.0,31.4,24.7,12.2,0000.0,0015.69,0012.11,0011.71
2023-01-04 03:22:00,,0817.7,5.00,0.00,22.7,22.2,00.0,31.4,24.6,12.2,0000.0,0015.75,0012.15,0011.75
2023-01-04 03:23:00,,0817.7,5.00,0.00,22.7,21.9,00.0,31.5,24.5,12.3,0000.0,0016.39,0012.21,0011.79
2023-01-04 03:24:00,,0817.6,4.99,0.00,22.7,21.7,00.0,31.5,24.5,12.4,0000.0,0016.91,0012.32,0011.87
2023-01-04 03:25:00,,0817.7,4.99,0.00,22.7,21.5,00.0,31.5,24.5,12.3,0000.0,0016.97,0012.37,0011.93
2023-01-04 03:26:00,,0817.7,5.00,0.00,22.7,21.4,00.0,31.5,24.4,12.3,0000.0,0017.07,0012.44,0011.97
2023-01-04 03:27:00,,0817.6,5.01,0.00,22.6,21.3,00.0,31.5,24.4,12.3,0000.0,0017.07,0012.47,0012.01
2023-01-04 03:28:00,,0817.6,5.01,0.00,22.6,21.2,00.0,31.5,24.3,12.3,0000.0,0017.06,0012.48,0012.05
2023-01-04 03:29:00,,0817.6,5.00,0.00,22.6,21.2,00.0,31.5,24.3,12.3,0000.0,0017.18,0012.52,0012.08
2023-01-04 03:30:00,,0817.6,4.99,0.00,22.6,21.1,00.0,31.4,24.3,12.4,0000.0,0017.49,0012.57,0012.12
2023-01-04 03:31:00,,0817.6,5.00,0.00,22.6,21.1,00.0,31.4,24.3,12.4,0000.0,0017.36,0012.61,0012.15
2023-01-04 03:32:00,,0817.5,4.99,0.00,22.5,21.0,00.0,31.4,24.2,12.4,0000.0,0017.10,0012.63,0012.18
2023-01-04 03:33:00,,0817.6,5.01,0.00,22.5,21.0,00.0,31.4,24.2,12.4,0000.0,0017.01,0012.64,0012.22
2023-01-04 03:34:00,,0817.5,5.00,0.00,22.5,21.0,00.0,31.4,24.2,12.4,0000.0,0016.71,0012.65,0012.26
2023-01-04 03:35:00,,0817.5,5.00,0.00,22.5,21.0,00.0,31.4,24.2,12.5,0000.0,0016.48,0012.64,0012.27
2023-01-04 03:36:00,,0817.5,5.00,0.00,22.5,21.0,00.0,31.4,24.2,12.5,0000.0,0016.50,0012.63,0012.26
2023-01-04 03:37:00,,0817.6,4.99,0.00,22.5,21.0,00.0,31.4,24.2,12.4,0000.0,0016.63,0012.62,0012.25
2023-01-04 03:38:00,,0817.5,5.00,0.00,22.5,21.2,00.0,31.3,24.2,12.4,0000.0,0016.83,0012.63,0012.27
2023-01-04 03:39:00,,0817.5,5.02,0.00,22.5,21.9,00.0,31.3,24.4,12.4,0000.0,0016.93,0012.65,0012.27
2023-01-04 03:40:00,,0817.6,4.99,0.00,22.6,22.8,00.0,31.3,24.6,12.3,0000.0,0016.88,0012.64,0012.27
2023-01-04 03:41:00,,0817.6,4.99,0.00,22.7,22.9,00.0,31.4,24.7,12.3,0000.0,0016.73,0012.59,0012.25
2023-01-04 03:42:00,,0817.5,5.00,0.00,22.7,22.6,00.0,31.4,24.7,12.2,0000.0,0016.67,0012.54,0012.23
2023-01-04 03:43:00,,0817.5,5.00,0.00,22.7,22.2,00.0,31.4,24.6,12.3,0000.0,0016.73,0012.57,0012.27
2023-01-04 03:44:00,,0817.5,5.00,0.00,22.7,21.9,00.0,31.5,24.5,12.3,0000.0,0016.83,0012.60,0012.30
2023-01-04 03:45:00,,0817.6,5.00,0.00,22.7,21.6,00.0,31.5,24.4,12.3,0000.0,0016.77,0012.62,0012.32
2023-01-04 03:46:00,,0817.5,5.00,0.00,22.7,21.4,00.0,31.5,24.4,12.3,0000.0,0016.49,0012.65,0012.35
2023-01-04 03:47:00,,0817.5,5.00,0.00,22.6,21.2,00.0,31.5,24.3,12.3,0000.0,0016.51,0012.73,0012.42
2023-01-04 03:48:00,,0817.5,5.01,0.00,22.6,21.1,00.0,31.5,24.3,12.3,0000.0,0016.36,0012.79,0012.51
2023-01-04 03:49:00,,0817.4,5.02,0.00,22.6,21.1,00.0,31.5,24.3,12.4,0000.0,0016.11,0012.81,0012.55
2023-01-04 03:50:00,,0817.4,5.00,0.00,22.6,21.0,00.0,31.4,24.2,12.4,0000.0,0016.08,0012.86,0012.60
2023-01-04 03:51:00,,0817.5,4.99,0.00,22.5,21.0,00.0,31.4,24.2,12.4,0000.0,0016.14,0012.95,0012.69
2023-01-04 03:52:00,,0817.5,5.00,0.00,22.5,21.0,00.0,31.4,24.2,12.4,0000.0,0016.18,0013.08,0012.81
2023-01-04 03:53:00,,0817.5,4.99,0.00,22.5,21.0,00.0,31.4,24.2,12.4,0000.0,0015.91,0013.21,0012.93
2023-01-04 03:54:00,,0817.5,5.01,0.00,22.5,21.0,00.0,31.4,24.1,12.4,0000.0,0015.92,0013.28,0012.99
2023-01-04 03:55:00,,0817.5,5.01,0.00,22.5,21.0,00.0,31.4,24.1,12.4,0000.0,0015.92,0013.33,0013.04
2023-01-04 03:56:00,,0817.4,5.01,0.00,22.5,21.2,00.0,31.3,24.2,12.4,0000.0,0015.92,0013.40,0013.11
2023-01-04 03:57:00,,0817.5,5.02,0.00,22.5,21.9,00.0,31.3,24.4,12.4,0000.0,0015.88,0013.45,0013.19
2023-01-04 03:58:00,,0817.5,4.99,0.00,22.6,22.8,00.0,31.3,24.6,12.2,0000.0,0015.86,0013.47,0013.22
2023-01-04 03:59:00,,0817.5,4.99,0.00,22.7,23.1,00.0,31.4,24.8,12.1,0000.0,0015.84,0013.47,0013.23
